Location: Brodeslavy
(49.9527°N, 13.5567°E)
Time: 05:24:26
(UTC+00:00)

Cosmos 1603 - Pass Details

Date: 17 June 2025
Orbit: 831 x 857 km, 71.0° (Epoch: 11 July)

Event Time Altitude Azimuth Distance (km) Brightness Sun altitude
Rises 21:25:48 0° 331° (NNW) 3,389 8.9 -13.3°
Reaches altitude 10° 21:28:15 10° 334° (NNW) 2,453 7.6 -13.4°
Maximum altitude 21:33:53 73° 59° (ENE) 879 3.8 -13.8°
Enters shadow 21:37:59 19° 142° (SE) 1,893 4.9 -14.0°
